NOAA 16 DEB, 41203

Orbit data source: Space-Track

NOAA 16 DEB, 41203 is space debris in SSO originally from a launch on Thu, 21 Sep 2000 UTC launched from the Air Force Western Test Range (AFWTR). Debris objects in space refer to the collection of defunct objects orbiting the Earth. Examples of debris include non-operational satellites, rocket bodies, and fragments generated from explosions, collisions, or faulty payload assembly.

Loading next visibility...
Identifier
41203, 2000-055DG
Orbit
SSO
Country
Flag of USUS
Related business
Manufacturer
Unknown
Mission
Spacecraft
Bus & Motor
Unknown
Mass
Unknown
Launch date (UTC)
2000-09-21 (25 years ago)
Launch vehicle
Unknown
Launch site
Air Force Western Test Range (AFWTR)
Object type
Payload
Rocket body
Debris
Shape & HBR
Unknown shape, 0.1 m
Radar Cross Section
Small (<0.1 m²)

Expand to show TLE details & history
Last TLE update: 11 hours ago

TLE from 11 hours ago
0 NOAA 16 DEB
1 41203U 00055DG  26034.07116527  .00002736  00000-0  13117-2 0  9997
2 41203  98.6943  79.7179 0034319 154.3002 205.9889 14.19478860522778
Epoch: 2026-02-03T01:42Z
TLE epoch observation values (Epoch: 2026-02-03T01:42:28.679Z)
Latitude
0.00001°
Longitude
-79.15896°
Altitude
852.278 km
Speed
7.415 km/s
True Right ascension
05h 18m 52s
True Declination
0° 00' 00"
Sunlit
Object was in full shadow at epoch
Visualization orbit readout
Latitude
Unknown
Longitude
Unknown
Altitude
Unknown
Speed
Unknown
Apparent Right ascension
Unknown
Apparent Declination
Unknown
Sunlit
N/A
Visualization observer readout
Local Sidereal Time
14:24:26
Azimuth
Unknown
Elevation
Unknown
Doppler factor
Unknown
Orbital elements
Apogee altitude
848.992 km
Perigee altitude
799.556 km
Semi-major axis
7,202.411 km
Eccentricity
0.00343
Inclination
98.6943°
RAAN
79.7179°
Arg. of periapsis
154.3002°
True anomaly
205.81723°
Mean anomaly
205.9889°
Eccentric anomaly
205.903°
Mean motion
3.5508 °/min
Orbital period
101.39 mins
BSTAR
0.0013117
Loading maneuver chart data...
Computing Atmospheric mass density...
Loading historical data...
Loading historical data...
Loading historical data...
Loading historical data...
Loading historical data...
Loading historical data...
Loading historical data...

Documentation

Showing up to 5 results
|